WA8SIE Weather Reports


time (UTC)temp
C
wind
direction
speed
KPH
gust
KPH
rain 1hr
cm
rain 24hr
cm
rain mn
cm
humidity
%
barometer
mb
20260831182511 31 226 0.0 6.4 0.00 0.00 0.00 63 1014.7
20260831182011 31 274 0.0 14.5 0.00 0.00 0.00 66 1014.7
20260831181511 31 338 0.0 14.5 0.00 0.00 0.00 65 1014.7
20260831170011 30 202 0.0 4.8 0.00 0.00 0.00 69 1015.2
20260831165511 29 201 0.0 4.8 0.00 0.00 0.00 67 1015.3
20260831165011 29 202 1.6 6.4 0.00 0.00 0.00 71 1015.3
20260831164512 28 202 0.0 6.4 0.00 0.00 0.00 70 1015.3
20260831163511 28 182 0.0 14.5 0.00 0.00 0.00 71 1015.5
20260831163011 28 183 0.0 14.5 0.00 0.00 0.00 75 1015.5
20260831162511 28 193 0.0 3.2 0.00 0.00 0.00 78 1015.6
20260831162013 27 205 0.0 3.2 0.00 0.00 0.00 79 1015.6
20260831161513 27 205 0.0 3.2 0.00 0.00 0.00 81 1015.6
20260831161011 27 205 0.0 4.8 0.00 0.00 0.00 81 1015.6
20260831160511 27 205 0.0 4.8 0.00 0.00 0.00 83 1015.6
20260831160011 26 217 0.0 0.0 0.00 0.00 0.00 83 1015.6
20260831155511 26 217 0.0 0.0 0.00 0.00 0.00 83 1015.6
20260831154511 26 216 0.0 4.8 0.00 0.00 0.00 82 1015.6
20260831154011 26 217 0.0 4.8 0.00 0.00 0.00 81 1015.8
20260831153511 26 217 0.0 4.8 0.00 0.00 0.00 80 1015.8
20260831153011 26 127 0.0 0.0 0.00 0.00 0.00 80 1015.8
20260831152513 26 127 0.0 0.0 0.00 0.00 0.00 80 1015.8
20260831152011 26 127 0.0 0.0 0.00 0.00 0.00 81 1015.8
20260831151012 26 127 0.0 0.0 0.00 0.00 0.00 81 1015.9
20260831150511 26 127 0.0 0.0 0.00 0.00 0.00 81 1015.9
20260831150012 26 127 0.0 0.0 0.00 0.00 0.00 82 1015.9
20260831145511 26 127 0.0 0.0 0.00 0.00 0.00 83 1015.7
20260831145011 26 127 0.0 3.2 0.00 0.00 0.00 82 1015.7
20260831144011 25 126 0.0 4.8 0.00 0.00 0.00 85 1015.7
20260831143511 25 34 3.2 3.2 0.00 0.00 0.00 88 1015.7
20260831143012 25 14 0.0 0.0 0.00 0.00 0.00 90 1015.7
20260831142511 25 14 0.0 3.2 0.00 0.00 0.00 92 1015.5
20260831142011 24 14 0.0 3.2 0.00 0.00 0.00 92 1015.5
20260831141511 24 15 0.0 1.6 0.00 0.00 0.00 94 1015.5
20260831140011 23 14 0.0 0.0 0.00 0.00 0.00 97 1015.4
20260831135512 23 13 0.0 0.0 0.00 0.00 0.00 98 1015.5
20260831135011 23 14 0.0 4.8 0.00 0.00 0.00 99 1015.5
20260831134511 23 14 0.0 4.8 0.00 0.00 0.00 100 1015.5
20260831134011 23 8 1.6 4.8 0.00 0.00 0.00 100 1015.7
20260831133511 23 2 0.0 3.2 0.00 0.00 0.00 100 1015.7
20260831133011 23 2 0.0 3.2 0.00 0.00 0.00 100 1015.7
20260831132512 22 1 0.0 0.0 0.00 0.00 0.00 100 1015.7
20260831132010 22 1 0.0 0.0 0.00 0.00 0.00 100 1015.7
20260831131510 22 1 0.0 0.0 0.00 0.00 0.00 100 1015.7
20260831131011 22 2 0.0 0.0 0.00 0.00 0.00 100 1015.7
20260831130511 22 2 0.0 0.0 0.00 0.00 0.00 100 1015.7
20260831125011 22 1 0.0 0.0 0.00 0.00 0.00 100 1015.4
20260831124511 22 1 0.0 0.0 0.00 0.00 0.00 100 1015.4
20260831124011 22 2 0.0 0.0 0.00 0.00 0.00 100 1015.5
20260831123511 21 1 0.0 0.0 0.00 0.00 0.00 100 1015.5
20260831123011 21 1 0.0 0.0 0.00 0.00 0.00 100 1015.5
20260831122511 21 1 0.0 0.0 0.00 0.00 0.00 100 1015.5
20260831122011 21 1 0.0 0.0 0.00 0.00 0.00 100 1015.5
20260831121511 21 1 0.0 0.0 0.00 0.00 0.00 100 1015.5
20260831121010 21 1 0.0 0.0 0.00 0.00 0.00 100 1015.3
20260831120512 21 1 0.0 0.0 0.00 0.00 0.00 100 1015.3
20260831120011 21 1 0.0 0.0 0.00 0.00 0.00 100 1015.3
20260831115511 21 1 0.0 0.0 0.00 0.00 0.00 100 1015.1
20260831113511 21 1 0.0 0.0 0.00 0.00 0.00 100 1014.9
20260831113011 20 1 0.0 0.0 0.00 0.00 0.00 100 1014.9
20260831112510 20 1 0.0 0.0 0.00 0.00 0.00 100 1014.9
20260831110010 20 1 0.0 0.0 0.00 0.00 0.00 100 1014.9
20260831105511 20 1 0.0 0.0 0.00 0.00 0.00 100 1014.8
20260831104011 20 1 0.0 0.0 0.00 0.00 0.00 100 1014.8
20260831103512 20 2 0.0 0.0 0.00 0.00 0.00 100 1014.8
20260831103010 20 1 0.0 0.0 0.00 0.00 0.00 100 1014.8
20260831102510 20 1 0.0 0.0 0.00 0.00 0.00 100 1014.7
20260831102011 20 1 0.0 0.0 0.00 0.00 0.00 100 1014.7
20260831101510 20 1 0.0 0.0 0.00 0.00 0.00 100 1014.7
20260831101010 20 1 0.0 0.0 0.00 0.00 0.00 100 1014.5
20260831100010 20 1 0.0 0.0 0.00 0.00 0.00 100 1014.5
20260831095512 21 1 0.0 0.0 0.00 0.00 0.00 100 1014.4
20260831095010 21 1 0.0 0.0 0.00 0.00 0.00 100 1014.4
20260831094510 21 1 0.0 0.0 0.00 0.00 0.00 100 1014.4
20260831093510 21 1 0.0 3.2 0.00 0.00 0.00 100 1014.3
20260831093010 21 1 3.2 3.2 0.00 0.00 0.00 100 1014.3
20260831092510 21 0.0 0.0 0.00 0.00 0.00 100 1014.3
20260831092010 21 0.0 0.0 0.00 0.00 0.00 100 1014.3
20260831091010 21 0.0 0.0 0.00 0.00 0.00 100 1014.3
20260831090510 21 0.0 0.0 0.00 0.00 0.00 100 1014.3
20260831090010 21 0.0 3.2 0.00 0.00 0.00 100 1014.3
20260831085510 21 0.0 3.2 0.00 0.00 0.00 100 1014.3
20260831084510 21 0.0 0.0 0.00 0.00 0.00 100 1014.3
20260831083510 21 0.0 0.0 0.00 0.00 0.00 100 1014.2
20260831083010 21 0.0 0.0 0.00 0.00 0.00 100 1014.2
20260831082010 21 0.0 0.0 0.00 0.00 0.00 100 1014.1
20260831081510 21 0.0 0.0 0.00 0.00 0.00 100 1014.1
20260831081010 21 1 0.0 0.0 0.00 0.00 0.00 100 1013.9
20260831080512 21 0.0 0.0 0.00 0.00 0.00 100 1013.9
20260831080010 21 1 0.0 0.0 0.00 0.00 0.00 100 1013.9
20260831075011 21 0.0 0.0 0.00 0.00 0.00 100 1013.9
20260831074513 21 0.0 0.0 0.00 0.00 0.00 100 1013.9
20260831074013 21 1 0.0 0.0 0.00 0.00 0.00 100 1013.9
20260831073511 21 0.0 0.0 0.00 0.00 0.00 100 1013.9
20260831073011 21 0.0 0.0 0.00 0.00 0.00 100 1013.9
20260831072511 21 0.0 0.0 0.00 0.00 0.00 100 1013.8
20260831072011 22 1 0.0 0.0 0.00 0.00 0.00 100 1013.8
20260831071511 22 0.0 0.0 0.00 0.00 0.00 100 1013.8
20260831071011 22 0.0 0.0 0.00 0.00 0.00 100 1013.9
20260831070511 22 1 0.0 0.0 0.00 0.00 0.00 100 1013.9
20260831070011 22 1 0.0 0.0 0.00 0.00 0.00 100 1013.9
20260831065511 22 0.0 0.0 0.00 0.00 0.00 100 1014.0
20260831065011 22 0.0 0.0 0.00 0.00 0.00 100 1014.0
20260831064513 22 0.0 0.0 0.00 0.00 0.00 100 1014.0
20260831064011 22 0.0 0.0 0.00 0.00 0.00 100 1014.0
20260831063512 22 1 0.0 0.0 0.00 0.00 0.00 100 1014.0
20260831062512 22 0.0 0.0 0.00 0.00 0.00 100 1013.9
20260831062011 22 1 0.0 0.0 0.00 0.00 0.00 100 1013.9
20260831061511 22 0.0 0.0 0.00 0.00 0.00 100 1013.9
20260831061011 22 0.0 0.0 0.00 0.00 0.00 100 1014.2
20260831060511 22 0.0 0.0 0.00 0.00 0.00 100 1014.2
20260831060011 22 1 0.0 0.0 0.00 0.00 0.00 100 1014.2
20260831055511 22 0.0 0.0 0.00 0.00 0.00 100 1014.1
20260831055011 22 0.0 0.0 0.00 0.00 0.00 100 1014.1
20260831054011 22 0.0 0.0 0.00 0.00 0.00 100 1014.1
20260831052013 22 0.0 0.0 0.00 0.00 0.00 100 1014.2
20260831051511 22 0.0 0.0 0.00 0.00 0.00 100 1014.2
20260831051012 23 0.0 0.0 0.00 0.00 0.00 100 1014.3
20260831050511 23 0.0 0.0 0.00 0.00 0.00 100 1014.3
20260831050013 23 0.0 0.0 0.00 0.00 0.00 100 1014.3
20260831045011 23 0.0 0.0 0.00 0.00 0.00 100 1014.3
20260831044513 23 0.0 0.0 0.00 0.00 0.00 100 1014.3
20260831044011 23 0.0 0.0 0.00 0.00 0.00 100 1014.4
20260831043511 23 0.0 0.0 0.00 0.00 0.00 100 1014.4
20260831043012 23 0.0 0.0 0.00 0.00 0.00 100 1014.4
20260831042511 23 0.0 0.0 0.00 0.00 0.00 100 1014.4
20260831042011 23 0.0 0.0 0.00 0.00 0.00 99 1014.4
20260831040511 23 0.0 0.0 0.00 0.00 0.00 99 1014.5
20260831040011 23 1 0.0 0.0 0.00 0.00 0.00 99 1014.5
20260831035511 23 0.0 0.0 0.00 0.00 0.00 99 1014.5
20260831035011 23 1 0.0 0.0 0.00 0.00 0.00 98 1014.5
20260831034511 23 0.0 0.0 0.00 0.00 0.00 98 1014.5
20260831034012 23 0.0 0.0 0.00 0.00 0.00 98 1014.6
20260831033511 23 0.0 0.0 0.00 0.00 0.00 98 1014.6
20260831033011 23 1 0.0 0.0 0.00 0.00 0.00 98 1014.6
20260831032011 24 1 0.0 0.0 0.00 0.00 0.00 98 1014.5
20260831031511 24 0.0 0.0 0.00 0.00 0.00 98 1014.5
20260831031011 24 1 0.0 0.0 0.00 0.00 0.00 98 1014.6
20260831030511 24 1 0.0 0.0 0.00 0.00 0.00 98 1014.6
20260831030012 24 0.0 0.0 0.00 0.00 0.00 97 1014.6
20260831025011 24 0.0 0.0 0.00 0.00 0.00 97 1014.4
20260831024511 24 0.0 0.0 0.00 0.00 0.00 97 1014.4
20260831024011 24 0.0 0.0 0.00 0.00 0.00 97 1014.4
20260831023511 24 0.0 0.0 0.00 0.00 0.00 97 1014.4
20260831022512 24 0.0 0.0 0.00 0.00 0.00 97 1014.4
20260831022010 24 0.0 0.0 0.00 0.00 0.00 97 1014.4
20260831021511 24 0.0 0.0 0.00 0.00 0.00 96 1014.4
20260831021011 24 0.0 0.0 0.00 0.00 0.00 96 1014.6
20260831020510 24 0.0 0.0 0.00 0.00 0.00 96 1014.6
20260831014511 24 0.0 0.0 0.00 0.00 0.00 95 1014.6
20260831014010 24 0.0 0.0 0.00 0.00 0.00 95 1014.5
20260831013510 24 1 0.0 0.0 0.00 0.00 0.00 95 1014.5
20260831013011 25 0.0 0.0 0.00 0.00 0.00 94 1014.5
20260831012510 25 0.0 0.0 0.00 0.00 0.00 94 1014.2
20260831012010 25 0.0 0.0 0.00 0.00 0.00 94 1014.2
20260831011511 25 0.0 0.0 0.00 0.00 0.00 93 1014.2
20260831011011 25 1 0.0 0.0 0.00 0.00 0.00 93 1014.2
20260831010511 25 0.0 0.0 0.00 0.00 0.00 92 1014.2
20260831005510 25 0.0 0.0 0.00 0.00 0.00 92 1013.8
20260831005011 25 0.0 0.0 0.00 0.00 0.00 91 1013.8
20260831004510 25 1 0.0 0.0 0.00 0.00 0.00 91 1013.8
20260831004010 25 0.0 1.6 0.00 0.00 0.00 90 1013.8
20260831003510 25 0.0 1.6 0.00 0.00 0.00 90 1013.8
20260831003011 25 0.0 0.0 0.00 0.00 0.00 89 1013.8
20260831002512 25 0.0 0.0 0.00 0.00 0.00 88 1013.7
20260831002010 26 0.0 0.0 0.00 0.00 0.00 87 1013.7
20260831001512 26 0.0 0.0 0.00 0.00 0.00 86 1013.7
20260831001010 26 0.0 0.0 0.00 0.00 0.00 85 1013.6
20260831000510 26 1 0.0 0.0 0.00 0.00 0.00 84 1013.6
20260831000012 26 0.0 0.0 0.00 0.00 0.00 83 1013.6
20260830235510 26 0.0 0.0 0.00 0.00 0.00 82 1013.6
20260830235010 26 1 0.0 0.0 0.00 0.00 0.00 81 1013.6
20260830234510 26 1 0.0 0.0 0.00 0.00 0.00 81 1013.6
20260830234010 26 0.0 1.6 0.00 0.00 0.00 80 1013.3
20260830233510 26 1 0.0 1.6 0.00 0.00 0.00 80 1013.3
20260830233011 27 0.0 0.0 0.00 0.00 0.00 79 1013.3
20260830232510 27 0.0 0.0 0.00 0.00 0.00 79 1013.2
20260830232010 27 0.0 0.0 0.00 0.00 0.00 78 1013.2
20260830231511 27 0.0 0.0 0.00 0.00 0.00 80 1013.2
20260830231011 27 0.0 0.0 0.00 0.00 0.00 80 1013.2
20260830230511 27 0.0 0.0 0.00 0.00 0.00 79 1013.2
20260830230010 27 0.0 0.0 0.00 0.00 0.00 78 1013.2
20260830225511 27 1 0.0 0.0 0.00 0.00 0.00 77 1013.3
20260830225011 27 1 0.0 0.0 0.00 0.00 0.00 76 1013.3
20260830224511 27 0.0 0.0 0.00 0.00 0.00 75 1013.3
20260830224011 28 0.0 0.0 0.00 0.00 0.00 75 1013.4
20260830223511 28 1 0.0 0.0 0.00 0.00 0.00 74 1013.4
20260830223013 28 1 0.0 0.0 0.00 0.00 0.00 75 1013.4
20260830222511 28 0.0 0.0 0.00 0.00 0.00 73 1013.6
20260830222013 28 1 0.0 0.0 0.00 0.00 0.00 70 1013.6
20260830221513 28 0.0 0.0 0.00 0.00 0.00 67 1013.6
20260830221011 28 1 0.0 0.0 0.00 0.00 0.00 66 1013.5
20260830220511 28 1 0.0 0.0 0.00 0.00 0.00 67 1013.5
20260830220011 28 1 0.0 0.0 0.00 0.00 0.00 65 1013.5
20260830215511 28 0.0 6.4 0.00 0.00 0.00 64 1013.6
20260830215011 28 8 0.0 6.4 0.00 0.00 0.00 65 1013.6
20260830214513 28 278 0.0 6.4 0.00 0.00 0.00 65 1013.6
20260830214011 29 274 1.6 6.4 0.00 0.00 0.00 66 1013.7
20260830213512 29 285 0.0 0.0 0.00 0.00 0.00 66 1013.7
20260830213011 29 285 0.0 4.8 0.00 0.00 0.00 63 1013.7
20260830212511 30 285 0.0 4.8 0.00 0.00 0.00 63 1013.6
20260830212012 30 326 0.0 4.8 0.00 0.00 0.00 63 1013.6
20260830211511 29 323 0.0 6.4 0.00 0.00 0.00 62 1013.6
20260830211011 29 323 0.0 8.0 0.00 0.00 0.00 61 1013.6
20260830210513 29 326 0.0 8.0 0.00 0.00 0.00 61 1013.6
20260830210011 29 299 4.8 6.4 0.00 0.00 0.00 64 1013.6
20260830205011 29 312 0.0 0.0 0.00 0.00 0.00 66 1013.7
20260830204511 28 312 0.0 0.0 0.00 0.00 0.00 65 1013.7
20260830204011 28 313 0.0 6.4 0.00 0.00 0.00 67 1013.7
20260830203511 28 313 0.0 6.4 0.00 0.00 0.00 68 1013.7
20260830203011 28 312 3.2 0.0 0.00 0.00 0.00 68 1013.7
20260830202511 28 312 0.0 0.0 0.00 0.00 0.00 68 1014.2
20260830202011 28 312 0.0 0.0 0.00 0.00 0.00 69 1014.2
20260830201511 28 317 0.0 11.3 0.00 0.00 0.00 69 1014.2
20260830200511 28 319 0.0 19.3 0.00 0.00 0.00 66 1014.2
20260830200011 29 333 3.2 16.1 0.00 0.00 0.00 66 1014.2
20260830195511 30 217 0.0 16.1 0.00 0.00 0.00 65 1014.0
20260830195013 30 285 3.2 14.5 0.00 0.00 0.00 63 1014.0
20260830194513 30 256 0.0 25.7 0.00 0.00 0.00 61 1014.0
20260830194011 31 270 6.4 25.7 0.00 0.00 0.00 59 1014.0
20260830193011 32 276 0.0 1.6 0.00 0.00 0.00 58 1014.0
20260830192512 32 265 0.0 3.2 0.00 0.00 0.00 57 1014.0
20260830192011 32 313 0.0 3.2 0.00 0.00 0.00 55 1014.0
20260830191511 32 191 0.0 3.2 0.00 0.00 0.00 59 1014.0
20260830191011 32 251 0.0 3.2 0.00 0.00 0.00 57 1014.2
20260830190012 32 202 0.0 4.8 0.00 0.00 0.00 57 1014.2
20260830185511 32 240 0.0 1.6 0.00 0.00 0.00 58 1014.4
20260830185011 32 269 0.0 6.4 0.00 0.00 0.00 60 1014.4
20260830184511 32 184 0.0 11.3 0.00 0.00 0.00 59 1014.4
20260830183511 31 190 4.8 9.7 0.00 0.00 0.00 59 1014.7
20260830183011 31 274 0.0 9.7 0.00 0.00 0.00 61 1014.7